Regional Weather Roundup
Issued by NWS

Home | Current Version | Previous Version | Text Only | Print | Product List | Glossary Off
Versions: 1 2 3 4 5 6 7 8 9 10 11 12 13 14 15 16 17 18 19 20 21 22 23 24 25 26 27 28 29 30 31 32 33 34 35 36 37 38 39 40 41 42 43 44 45 46 47 48 49 50

000
ASUS43 KFSD 240402
RWRSD

WEATHER ROUNDUP FOR SOUTH DAKOTA
NATIONAL WEATHER SERVICE SIOUX FALLS SD
1000 PM CST SUN NOV 23 2014

NOTE: "FAIR" INDICATES FEW OR NO CLOUDS BELOW 12,000 FEET WITH NO
SIGNIFICANT WEATHER AND/OR OBSTRUCTIONS TO VISIBILITY.


SDZ001>005-009-010-012>017-240500-
NORTHWEST AND NORTH CENTRAL SOUTH DAKOTA

CITY           SKY/WX    TMP DP  RH WIND       PRES   REMARKS
BUFFALO          N/A     23  17  78 NW22G32   29.67S WCI   8
FAITH            N/A     23  16  74 N16G25    29.71R WCI  10
MOBRIDGE       CLOUDY    24  16  71 NW25G35   29.66R WCI   8
$$

SDZ012>016-024>037-041>051-057-063-072>074-240500-
SOUTHWEST AND SOUTH CENTRAL SOUTH DAKOTA

CITY           SKY/WX    TMP DP  RH WIND       PRES   REMARKS
RAPID CTY ARPT PTCLDY    35  20  54 NW24G39   29.71S WCI  23
PIERRE         CLOUDY    28  19  69 NW24G32   29.67S WCI  14
CUSTER         PTCLDY    27  13  55 NW15G26   29.68S WCI  15
ELLSWORTH AFB  PTCLDY    35  21  57 N31G39    29.68F WCI  21
PHILIP         CLOUDY   N/A N/A N/A NW22      29.72F
PINE RIDGE     CLOUDY    35  23  61 W13       29.74F WCI  26
WINNER         CLOUDY    31  20  63 NW22G29   29.67S WCI  18
$$

SDZ004>011-016>023-039-040-240500-
NORTHEAST SOUTH DAKOTA

CITY           SKY/WX    TMP DP  RH WIND       PRES   REMARKS
ABERDEEN       CLOUDY    21  12  68 N18       29.64S WCI   6
WATERTOWN      CLOUDY    21  14  74 NW22G31   29.53F WCI   5
SISSETON         N/A     21  17  84 N29G36    29.55S WCI   3
$$

SDZ017-020-022-023-036>040-048>070-240500-
SOUTHEAST SOUTH DAKOTA

CITY           SKY/WX    TMP DP  RH WIND       PRES   REMARKS
SIOUX FALLS    CLOUDY    27  20  75 NW21G30   29.54F WCI  13
HURON          CLOUDY    24  16  71 NW21G32   29.64R WCI   9
CHAMBERLAIN    FLURRIES  28  20  71 NW20G29   29.66S WCI  15
MITCHELL       CLOUDY    28  19  69 N22       29.63  WCI  14
YANKTON        CLOUDY    30  19  64 NW20G26   29.60F WCI  18
$$

ABBREVIATIONS USED IN REMARKS
   TC - TEMPERATURE IN CELSIUS
  WCI - WIND CHILL INDEX
   HX - HEAT INDEX
  VSB - VISIBILITY




USA.gov is the U.S. government's official web portal to all federal, state and local government web resources and services.